Location: Peterborough
(44.3091°N, 78.3197°W)
Time: 17:58:30
(UTC-04:00)

Transit 2A Rocket - Pass Details

Date: 31 March 2023
Orbit: 584 x 914 km, 66.7° (Epoch: 04 June)

Event Time Altitude Azimuth Distance (km) Brightness Sun altitude
Rises 11:43:16 0° 227° (SW) 3,273 8.4 44.9°
Reaches altitude 10° 11:45:40 10° 232° (SW) 2,396 7.7 45.1°
Maximum altitude 11:51:05 52° 309° (NW) 1,066 6.0 45.6°
Drops below altitude 10° 11:56:56 10° 25° (NNE) 2,576 7.6 46.2°
Sets 11:59:36 0° 30° (NNE) 3,541 8.2 46.4°
